Lafayette, LA

6:57 PM CST on January 21, 2017 (GMT -0600)
Lafayette Regional Airport

Weather History for KLFT - September, 2014

Change the Weather History Date:

Monday, September 8, 2014

  Actual Average Record
Temperature  
Mean Temperature 83 °F 81 °F  
Max Temperature 92 °F 91 °F 99 °F (1925)
Min Temperature 74 °F 72 °F 51 °F (1918)
Degree Days  
Heating Degree Days 0 0  
Month to date heating degree days 0 0  
Since 1 July heating degree days 0 0  
Cooling Degree Days 18 16  
Month to date cooling degree days 143 135  
Year to date cooling degree days 2200 2396  
Growing Degree Days 32 (Base 50)    
Moisture  
Dew Point 74 °F    
Average Humidity 76    
Maximum Humidity 100    
Minimum Humidity 52    
Precipitation  
Precipitation 0.62 in 0.16 in 2.46 in (1974)
Month to date precipitation 1.77 1.33  
Year to date precipitation 47.86 41.95  
Sea Level Pressure  
Sea Level Pressure 29.98 in    
Wind  
Wind Speed 3 mph (NNE)    
Max Wind Speed 22 mph    
Max Gust Speed 26 mph    
Visibility 6 miles    
Events Fog , Rain    
T = Trace of Precipitation, MM = Missing Value Source: NWS Daily Summary

Daily Weather History Graph

Daily Weather History Graph

Search for Another Location

Airport or City:

Trip Planner

Search our weather history database for the weather conditions in past years. The results will help you decide how hot, cold, wet, or windy it might be!

Date:

Astronomy

Sep. 08, 2014 Rise Set
Actual Time 6:48 AM CDT 7:22 PM CDT
Civil Twilight 6:24 AM CDT 7:46 PM CDT
Nautical Twilight 5:56 AM CDT 8:14 PM CDT
Astronomical Twilight 5:27 AM CDT 8:43 PM CDT
Moon 7:05 PM CDT (9/8) 6:13 AM CDT (9/8)
Length of Visible Light 13h 21m
Length of Day
12h 33m
Full, 100% of the Moon is Illuminated
Sep 8
Full
Sep 8
Full
Sep 15
Last Quarter
Sep 24
New
Oct 1
First Quarter

Hourly Weather History & Observations

Time (CDT) Temp. Heat Index Dew Point Humidity Pressure Visibility Wind Dir Wind Speed Gust Speed Precip Events Conditions
12:53 AM 75.0 °F - 73.0 °F 94% 29.98 in 10.0 mi Calm Calm - N/A   Clear
1:53 AM 75.9 °F - 73.9 °F 94% 29.97 in 9.0 mi NNW 3.5 mph - N/A   Clear
2:53 AM 75.9 °F - 73.9 °F 94% 29.97 in 7.0 mi NNW 4.6 mph - N/A   Clear
3:53 AM 75.2 °F - 73.4 °F 94% 29.98 in 7.0 mi NNW 3.5 mph - N/A   Clear
4:48 AM 75.2 °F - 73.4 °F 94% 29.97 in 6.0 mi Calm Calm - N/A   Scattered Clouds
4:53 AM 75.0 °F - 73.9 °F 96% 29.97 in 5.0 mi North 4.6 mph - N/A   Scattered Clouds
5:13 AM 75.0 °F - 73.9 °F 96% 29.97 in 5.0 mi NNE 3.5 mph - N/A   Mostly Cloudy
5:53 AM 75.0 °F - 73.9 °F 96% 29.98 in 4.0 mi NNE 5.8 mph - N/A   Overcast
6:15 AM 73.9 °F - 73.9 °F 100% 29.98 in 0.5 mi NNE 4.6 mph - N/A Fog Fog
6:35 AM 73.9 °F - 73.9 °F 100% 29.98 in 0.2 mi NNE 3.5 mph - N/A Fog Fog
6:53 AM 73.4 °F - 73.4 °F 100% 29.99 in 0.2 mi NNE 3.5 mph - N/A Fog Fog
7:53 AM - - - N/A% 30.00 in 0.8 mi NNE 4.6 mph - N/A   Mist
8:00 AM - - - N/A% 30.00 in 1.8 mi NE 4.6 mph - N/A   Overcast
8:08 AM - - - N/A% 30.01 in 2.5 mi NE 3.5 mph - N/A   Overcast
8:22 AM 75.0 °F - 73.9 °F 96% 30.01 in 3.0 mi NE 3.5 mph - N/A   Mostly Cloudy
8:53 AM 78.1 °F - 75.0 °F 90% 30.01 in 6.0 mi Calm Calm - N/A   Scattered Clouds
9:53 AM 82.0 °F 88.6 °F 75.0 °F 79% 30.01 in 10.0 mi Variable 4.6 mph - N/A   Partly Cloudy
10:53 AM 84.9 °F 92.1 °F 73.9 °F 69% 30.02 in 10.0 mi Calm Calm - N/A   Clear
11:53 AM 87.1 °F 95.4 °F 73.9 °F 65% 30.02 in 10.0 mi Variable 3.5 mph - N/A   Scattered Clouds
12:21 PM 87.1 °F 95.4 °F 73.9 °F 65% 30.01 in 10.0 mi Variable 5.8 mph - N/A   Mostly Cloudy
12:32 PM 89.1 °F 99.1 °F 75.0 °F 63% 30.01 in 10.0 mi NE 4.6 mph - N/A   Scattered Clouds
12:53 PM 87.1 °F 95.4 °F 73.9 °F 65% 30.00 in 10.0 mi Variable 3.5 mph - N/A   Mostly Cloudy
1:53 PM 88.0 °F 96.5 °F 73.9 °F 63% 29.99 in 10.0 mi NE 8.1 mph - N/A   Mostly Cloudy
2:00 PM 88.0 °F 96.5 °F 73.9 °F 63% 29.99 in 10.0 mi NE 5.8 mph - N/A   Scattered Clouds
2:53 PM 88.0 °F 96.5 °F 73.9 °F 63% 29.97 in 10.0 mi ENE 5.8 mph - N/A   Partly Cloudy
3:53 PM 91.0 °F 98.2 °F 72.0 °F 53% 29.94 in 10.0 mi Variable 3.5 mph - N/A   Clear
4:53 PM 91.0 °F 99.3 °F 73.0 °F 55% 29.94 in 10.0 mi Variable 3.5 mph - N/A   Clear
5:53 PM 89.1 °F 98.0 °F 73.9 °F 61% 29.94 in 10.0 mi Variable 3.5 mph - N/A   Clear
6:53 PM 82.0 °F 88.6 °F 75.0 °F 79% 29.95 in 10.0 mi South 5.8 mph - N/A   Partly Cloudy
7:15 PM 81.0 °F 86.7 °F 75.0 °F 82% 29.96 in 1.8 mi South 11.5 mph - 0.11 in Rain Heavy Rain
7:26 PM 78.8 °F - 73.4 °F 83% 29.96 in 0.5 mi WSW 21.9 mph 26.5 mph N/A Rain Heavy Rain
7:34 PM 79.0 °F - 71.1 °F 77% 29.95 in 1.0 mi SW 12.7 mph - 0.61 in Rain Heavy Rain
7:38 PM 78.1 °F - 72.0 °F 81% 29.95 in 3.0 mi SW 11.5 mph - 0.62 in Rain Heavy Rain
7:53 PM 77.0 °F - 73.9 °F 90% 29.95 in 10.0 mi SW 3.5 mph - 0.62 in Rain Light Rain
8:53 PM 77.0 °F - 75.9 °F 96% 29.97 in 8.0 mi Calm Calm - 0.00 in   Clear
9:53 PM 78.1 °F - 75.9 °F 93% 29.98 in 7.0 mi Calm Calm - N/A   Clear
10:53 PM 78.1 °F - 75.9 °F 93% 29.99 in 6.0 mi Calm Calm - N/A   Clear
11:53 PM 77.0 °F - 75.2 °F 94% 30.00 in 7.0 mi Calm Calm - N/A   Clear